Location: *
(44.1392°N, 4.8079°E)
Time: 21:36:11
(UTC+00:00)

Cosmos 1242 Rocket - Pass Details

Date: 21 June 2021
Orbit: 446 x 483 km, 81.2° (Epoch: 01 August)

Event Time Altitude Azimuth Distance (km) Brightness Sun altitude
Rises 01:23:18 0° 343° (NNW) 2,528 7.0 -18.6°
Reaches altitude 10° 01:25:26 10° 338° (NNW) 1,651 5.8 -18.4°
Maximum altitude 01:28:55 46° 264° (W) 652 2.9 -18.2°
Enters shadow 01:29:17 44° 244° (WSW) 671 2.9 -18.1°
